Date String (YYYY-MM-DD hh:mm:ss) UTC,Instrument flags,Ambient pressure (hPa),Sample flow (lpm),Bypass flow (lpm),Sample temperature (°C),Ambient temperature (°C),ASC tube jacket temperature (°C),LED temperature (°C),Box temperature (°C),Sample RH (%),Span deviation,Mass concentration (μg/m³),Mass concentration (μg/m³),Mass concentration (μg/m³)
DateTimeUTC,F1_M11,P_M11,Q1_M11,Q2_M11,T1_M11,T2_M11,T3_M11,T4_M11,T5_M11,U1_M11,ZSPAN_M11,X0_M11,X2_M11,X1_M11
2021-09-15 19:00:00,,0824.5,4.99,0.00,29.2,27.3,00.0,38.3,31.0,25.4,0002.6,0021.02,0009.33,0007.96
2021-09-15 19:01:00,,0824.7,5.01,0.00,29.3,27.7,00.0,38.3,31.1,25.5,0002.3,0021.15,0009.24,0007.95
2021-09-15 19:02:00,,0824.8,4.98,0.00,29.3,28.0,00.0,38.3,31.2,25.6,0002.1,0021.12,0009.27,0007.95
2021-09-15 19:03:00,,0824.7,5.02,0.00,29.4,28.2,00.0,38.3,31.3,25.5,0002.0,0023.05,0009.26,0007.94
2021-09-15 19:04:00,,0824.6,4.99,0.00,29.4,28.4,00.0,38.3,31.3,24.8,0001.8,0024.75,0009.25,0007.92
2021-09-15 19:05:00,,0824.6,5.00,0.00,29.5,28.6,00.0,38.4,31.4,24.4,0002.0,0025.12,0009.28,0007.93
2021-09-15 19:06:00,,0824.6,5.00,0.00,29.5,28.8,00.0,38.4,31.5,24.5,0001.6,0025.80,0009.28,0007.93
2021-09-15 19:07:00,,0824.7,5.00,0.00,29.6,28.1,00.0,38.4,31.3,24.9,0001.7,0026.07,0009.33,0007.94
2021-09-15 19:08:00,,0824.5,5.01,0.00,29.4,26.4,00.0,38.4,30.8,25.1,0001.8,0026.93,0009.34,0007.96
2021-09-15 19:09:00,,0824.4,5.01,0.00,29.3,26.0,00.0,38.4,30.7,25.6,0001.4,0026.69,0009.38,0007.97
2021-09-15 19:10:00,,0824.5,4.99,0.00,29.3,26.4,00.0,38.4,30.8,26.0,0000.9,0026.64,0009.40,0007.97
2021-09-15 19:11:00,,0824.5,5.00,0.00,29.2,26.9,00.0,38.4,30.9,25.6,0000.7,0026.43,0009.49,0007.97
2021-09-15 19:12:00,,0824.6,5.00,0.00,29.3,27.3,00.0,38.3,31.0,25.8,0000.7,0027.34,0009.60,0007.97
2021-09-15 19:13:00,,0824.6,5.00,0.00,29.3,27.7,00.0,38.3,31.1,25.5,0000.6,0028.05,0009.65,0007.98
2021-09-15 19:14:00,,0824.6,4.99,0.00,29.3,28.0,00.0,38.3,31.2,24.6,0000.7,0026.77,0009.69,0008.00
2021-09-15 19:15:00,,0824.4,4.99,0.00,29.4,28.3,00.0,38.3,31.3,23.6,0000.7,0025.99,0009.73,0008.01
2021-09-15 19:16:00,,0824.4,5.01,0.00,29.5,28.5,00.0,38.4,31.4,24.2,0001.0,0025.15,0009.72,0008.00
2021-09-15 19:17:00,,0824.4,4.98,0.00,29.5,28.1,00.0,38.4,31.3,25.8,0001.2,0024.20,0009.73,0008.01
2021-09-15 19:18:00,,0824.5,5.01,0.00,29.4,26.4,00.0,38.4,30.8,26.2,0001.0,0023.91,0009.67,0008.00
2021-09-15 19:19:00,,0824.5,5.00,0.00,29.2,25.8,00.0,38.4,30.6,26.3,0001.2,0022.79,0009.65,0007.99
2021-09-15 19:20:00,,0824.5,4.98,0.00,29.2,26.2,00.0,38.4,30.7,26.6,0001.6,0023.51,0009.64,0007.99
2021-09-15 19:21:00,,0824.5,4.99,0.00,29.2,26.6,00.0,38.3,30.8,26.3,0001.7,0024.12,0009.60,0007.97
2021-09-15 19:22:00,,0824.5,5.01,0.00,29.2,27.1,00.0,38.3,30.9,25.7,0001.9,0024.79,0009.53,0007.96
2021-09-15 19:23:00,,0824.5,4.99,0.00,29.2,27.5,00.0,38.3,31.0,26.1,0002.0,0024.99,0009.48,0007.97
2021-09-15 19:24:00,,0824.4,5.00,0.00,29.3,27.8,00.0,38.3,31.1,26.0,0002.3,0027.18,0009.48,0007.97
2021-09-15 19:25:00,,0824.4,5.00,0.00,29.3,28.1,00.0,38.3,31.2,26.2,0002.1,0027.39,0009.45,0007.97
2021-09-15 19:26:00,,0824.4,5.01,0.00,29.4,28.4,00.0,38.3,31.3,25.9,0001.7,0026.98,0009.45,0007.96
2021-09-15 19:27:00,,0824.3,5.00,0.00,29.4,28.1,00.0,38.4,31.2,25.8,0001.7,0027.60,0009.48,0007.96
2021-09-15 19:28:00,,0824.3,4.99,0.00,29.3,26.4,00.0,38.3,30.7,25.6,0001.9,0028.52,0009.49,0007.95
2021-09-15 19:29:00,,0824.2,5.00,0.00,29.1,25.6,00.0,38.3,30.4,25.3,0002.0,0028.34,0009.55,0007.94
2021-09-15 19:30:00,,0824.2,5.01,0.00,29.1,26.0,00.0,38.3,30.6,25.0,0001.9,0029.95,0009.53,0007.91
2021-09-15 19:31:00,,0824.2,5.00,0.00,29.1,26.4,00.0,38.3,30.7,24.8,0001.8,0029.57,0009.51,0007.89
2021-09-15 19:32:00,,0824.2,5.00,0.00,29.1,26.9,00.0,38.2,30.8,24.4,0001.8,0029.40,0009.56,0007.90
2021-09-15 19:33:00,,0824.2,4.99,0.00,29.1,27.3,00.0,38.2,30.9,23.9,0002.1,0028.93,0009.60,0007.90
2021-09-15 19:34:00,,0824.2,5.01,0.00,29.2,27.7,00.0,38.2,31.0,24.2,0002.3,0027.53,0009.58,0007.85
2021-09-15 19:35:00,,0824.2,5.00,0.00,29.2,28.0,00.0,38.2,31.1,24.1,0002.2,0025.30,0009.54,0007.82
2021-09-15 19:36:00,,0824.1,4.99,0.00,29.3,28.3,00.0,38.2,31.2,24.3,0002.4,0026.64,0009.60,0007.81
2021-09-15 19:37:00,,0824.1,5.00,0.00,29.4,28.4,00.0,38.3,31.3,24.3,0002.6,0027.50,0009.62,0007.79
2021-09-15 19:38:00,,0824.1,5.00,0.00,29.4,27.7,00.0,38.3,31.1,24.6,0002.4,0029.38,0009.61,0007.79
2021-09-15 19:39:00,,0824.1,5.01,0.00,29.2,26.1,00.0,38.3,30.6,25.0,0002.1,0030.27,0009.64,0007.81
2021-09-15 19:40:00,,0824.1,5.00,0.00,29.1,25.8,00.0,38.3,30.5,25.1,0002.0,0031.52,0009.62,0007.82
2021-09-15 19:41:00,,0824.1,5.00,0.00,29.1,26.2,00.0,38.2,30.6,24.5,0002.2,0030.57,0009.65,0007.84
2021-09-15 19:42:00,,0824.1,5.02,0.00,29.0,26.6,00.0,38.2,30.7,24.8,0002.3,0030.28,0009.68,0007.85
2021-09-15 19:43:00,,0824.1,5.00,0.00,29.1,27.1,00.0,38.2,30.8,24.7,0002.5,0030.93,0009.67,0007.85
2021-09-15 19:44:00,,0824.0,5.00,0.00,29.1,27.5,00.0,38.2,31.0,24.5,0002.4,0031.10,0009.74,0007.87
2021-09-15 19:45:00,,0824.1,5.01,0.00,29.2,27.8,00.0,38.2,31.1,24.7,0002.3,0031.55,0009.82,0007.92
2021-09-15 19:46:00,,0824.1,4.99,0.00,29.2,28.1,00.0,38.2,31.1,23.9,0002.5,0032.86,0009.83,0007.94
2021-09-15 19:47:00,,0824.1,5.00,0.00,29.3,28.3,00.0,38.2,31.2,24.0,0002.5,0030.60,0009.83,0007.94
2021-09-15 19:48:00,,0824.1,5.00,0.00,29.4,28.5,00.0,38.2,31.3,23.1,0002.5,0029.17,0009.82,0007.94
2021-09-15 19:49:00,,0824.0,5.00,0.00,29.4,28.6,00.0,38.3,31.4,23.4,0002.6,0026.85,0009.81,0007.92
2021-09-15 19:50:00,,0824.0,5.00,0.00,29.4,27.4,00.0,38.3,31.0,24.3,0002.6,0025.83,0009.76,0007.92
2021-09-15 19:51:00,,0824.0,5.00,0.00,29.2,25.9,00.0,38.3,30.6,24.6,0002.6,0024.94,0009.82,0007.92
2021-09-15 19:52:00,,0824.0,5.00,0.00,29.2,26.0,00.0,38.3,30.6,24.5,0002.4,0025.14,0009.85,0007.95
2021-09-15 19:53:00,,0824.0,4.99,0.00,29.1,26.4,00.0,38.2,30.7,24.7,0002.3,0024.82,0009.84,0007.97
2021-09-15 19:54:00,,0823.9,5.00,0.00,29.1,26.8,00.0,38.2,30.8,24.7,0002.3,0025.21,0009.86,0007.98
2021-09-15 19:55:00,,0824.0,5.01,0.00,29.1,27.3,00.0,38.2,30.9,23.6,0002.1,0025.51,0009.80,0007.98
2021-09-15 19:56:00,,0824.0,5.00,0.00,29.2,27.7,00.0,38.2,31.0,22.4,0002.3,0025.75,0009.72,0007.96
2021-09-15 19:57:00,,0823.9,5.01,0.00,29.2,28.0,00.0,38.2,31.1,21.9,0002.1,0025.09,0009.71,0007.94
2021-09-15 19:58:00,,0823.9,5.00,0.00,29.3,28.3,00.0,38.2,31.2,23.1,0001.8,0025.16,0009.65,0007.93
2021-09-15 19:59:00,,0823.8,4.99,0.00,29.4,28.5,00.0,38.3,31.3,23.4,0001.9,0027.07,0009.65,0007.96
